Time,TemperatureF,DewpointF,PressureIn,WindDirection,WindDirectionDegrees,WindSpeedMPH,WindSpeedGustMPH,Humidity,HourlyPrecipIn,Conditions,Clouds,dailyrainin,SoftwareType,DateUTC
2013-01-16 00:03:00,34.6,29.4,30.19,NNW,334,3.0,4.0,81,0.00,,---,0.00,VWS V14.01,2013-01-16 06:03:00,
2013-01-16 00:08:00,34.5,29.3,30.19,NW,323,2.0,6.0,81,0.00,,---,0.00,VWS V14.01,2013-01-16 06:08:00,
2013-01-16 00:13:00,34.5,29.0,30.20,WNW,300,3.0,6.0,80,0.01,,---,0.01,VWS V14.01,2013-01-16 06:13:00,
2013-01-16 00:18:00,34.5,29.0,30.19,NNW,328,5.0,6.0,80,0.01,,---,0.01,VWS V14.01,2013-01-16 06:18:00,
2013-01-16 00:23:00,34.5,29.0,30.19,NW,312,4.0,7.0,80,0.01,,---,0.01,VWS V14.01,2013-01-16 06:23:00,
2013-01-16 00:28:00,34.4,28.9,30.19,NW,326,2.0,7.0,80,0.01,,---,0.01,VWS V14.01,2013-01-16 06:28:00,
2013-01-16 00:33:00,34.3,28.8,30.19,NW,313,5.0,5.0,80,0.01,,---,0.01,VWS V14.01,2013-01-16 06:33:00,
2013-01-16 00:38:00,34.2,28.7,30.19,NNW,333,2.0,6.0,80,0.01,,---,0.01,VWS V14.01,2013-01-16 06:38:00,
2013-01-16 00:43:00,34.1,28.6,30.18,WNW,302,3.0,6.0,80,0.01,,---,0.01,VWS V14.01,2013-01-16 06:43:00,
2013-01-16 00:48:00,33.9,28.4,30.19,NNW,330,1.0,6.0,80,0.01,,---,0.01,VWS V14.01,2013-01-16 06:48:00,
2013-01-16 00:53:00,33.7,28.2,30.19,NW,307,3.0,6.0,80,0.01,,---,0.01,VWS V14.01,2013-01-16 06:53:00,
2013-01-16 00:58:00,33.5,28.3,30.18,NNW,328,1.0,6.0,81,0.01,,---,0.01,VWS V14.01,2013-01-16 06:58:00,
2013-01-16 01:03:00,33.3,28.1,30.18,NW,307,2.0,2.0,81,0.01,,---,0.01,VWS V14.01,2013-01-16 07:03:00,
2013-01-16 01:08:00,33.2,28.0,30.19,NW,314,2.0,3.0,81,0.01,,---,0.01,VWS V14.01,2013-01-16 07:08:00,
2013-01-16 01:13:00,33.1,28.2,30.20,NW,318,3.0,3.0,82,0.01,,---,0.01,VWS V14.01,2013-01-16 07:13:00,
2013-01-16 01:18:00,32.9,28.0,30.20,NW,319,1.0,3.0,82,0.01,,---,0.01,VWS V14.01,2013-01-16 07:18:00,
2013-01-16 01:23:00,32.7,27.8,30.21,WNW,290,2.0,4.0,82,0.01,,---,0.01,VWS V14.01,2013-01-16 07:23:00,
2013-01-16 01:28:00,32.5,27.6,30.20,NW,315,1.0,4.0,82,0.01,,---,0.01,VWS V14.01,2013-01-16 07:28:00,
2013-01-16 01:33:00,32.4,27.5,30.20,NW,310,2.0,3.0,82,0.00,,---,0.01,VWS V14.01,2013-01-16 07:33:00,
2013-01-16 01:38:00,32.3,27.1,30.20,NW,326,2.0,4.0,81,0.00,,---,0.01,VWS V14.01,2013-01-16 07:38:00,
2013-01-16 01:43:00,32.3,27.1,30.20,NW,307,3.0,5.0,81,0.00,,---,0.01,VWS V14.01,2013-01-16 07:43:00,
2013-01-16 01:48:00,32.3,26.8,30.21,NW,323,2.0,5.0,80,0.00,,---,0.01,VWS V14.01,2013-01-16 07:48:00,
2013-01-16 01:53:00,32.2,26.7,30.20,NNW,330,1.0,5.0,80,0.00,,---,0.01,VWS V14.01,2013-01-16 07:53:00,
2013-01-16 01:58:00,32.2,26.7,30.20,NW,314,2.0,5.0,80,0.00,,---,0.01,VWS V14.01,2013-01-16 07:58:00,
2013-01-16 02:03:00,32.2,27.0,30.21,WNW,302,2.0,2.0,81,0.00,,---,0.01,VWS V14.01,2013-01-16 08:03:00,
2013-01-16 02:08:00,32.1,26.6,30.21,NW,307,2.0,3.0,80,0.00,,---,0.01,VWS V14.01,2013-01-16 08:08:00,
2013-01-16 02:13:00,32.1,26.6,30.21,NNW,328,2.0,3.0,80,0.00,,---,0.01,VWS V14.01,2013-01-16 08:13:00,
2013-01-16 02:18:00,31.9,26.4,30.20,NW,326,2.0,3.0,80,0.00,,---,0.01,VWS V14.01,2013-01-16 08:18:00,
2013-01-16 02:23:00,31.8,26.4,30.21,NW,321,2.0,3.0,80,0.00,,---,0.01,VWS V14.01,2013-01-16 08:23:00,
2013-01-16 02:28:00,31.8,26.4,30.21,NW,304,1.0,3.0,80,0.00,,---,0.01,VWS V14.01,2013-01-16 08:28:00,
2013-01-16 02:33:00,31.7,25.9,30.22,NW,304,5.0,5.0,79,0.00,,---,0.01,VWS V14.01,2013-01-16 08:33:00,
2013-01-16 02:38:00,31.7,26.2,30.21,NNW,331,2.0,5.0,80,0.00,,---,0.01,VWS V14.01,2013-01-16 08:38:00,
2013-01-16 02:43:00,31.6,25.9,30.21,NW,326,0.0,5.0,79,0.00,,---,0.01,VWS V14.01,2013-01-16 08:43:00,
2013-01-16 02:48:00,31.6,26.1,30.21,NW,309,1.0,5.0,80,0.00,,---,0.01,VWS V14.01,2013-01-16 08:48:00,
2013-01-16 02:53:00,31.5,26.0,30.21,NW,312,1.0,5.0,80,0.00,,---,0.01,VWS V14.01,2013-01-16 08:53:00,
2013-01-16 02:58:00,31.4,25.6,30.21,WNW,297,0.0,5.0,79,0.00,,---,0.01,VWS V14.01,2013-01-16 08:58:00,
2013-01-16 03:03:00,31.5,26.0,30.20,NNW,344,2.0,3.0,80,0.00,,---,0.01,VWS V14.01,2013-01-16 09:03:00,
2013-01-16 03:08:00,31.5,26.0,30.21,WNW,299,2.0,3.0,80,0.00,,---,0.01,VWS V14.01,2013-01-16 09:08:00,
2013-01-16 03:13:00,31.6,26.1,30.20,NNW,332,1.0,4.0,80,0.00,,---,0.01,VWS V14.01,2013-01-16 09:13:00,
2013-01-16 03:18:00,31.6,26.1,30.20,NW,314,3.0,4.0,80,0.00,,---,0.01,VWS V14.01,2013-01-16 09:18:00,
2013-01-16 03:23:00,31.6,26.1,30.20,NW,304,2.0,4.0,80,0.00,,---,0.01,VWS V14.01,2013-01-16 09:23:00,
2013-01-16 03:28:00,31.6,25.9,30.19,NNW,335,3.0,6.0,79,0.00,,---,0.01,VWS V14.01,2013-01-16 09:28:00,
2013-01-16 03:33:00,31.6,25.5,30.19,NW,309,4.0,7.0,78,0.00,,---,0.01,VWS V14.01,2013-01-16 09:33:00,
2013-01-16 03:38:00,31.6,25.5,30.20,WNW,300,4.0,7.0,78,0.00,,---,0.01,VWS V14.01,2013-01-16 09:38:00,
2013-01-16 03:43:00,31.5,25.4,30.19,NW,305,3.0,8.0,78,0.00,,---,0.01,VWS V14.01,2013-01-16 09:43:00,
2013-01-16 03:48:00,31.5,25.8,30.21,NW,307,4.0,8.0,79,0.00,,---,0.01,VWS V14.01,2013-01-16 09:48:00,
2013-01-16 03:53:00,31.5,25.4,30.19,NW,307,2.0,8.0,78,0.00,,---,0.01,VWS V14.01,2013-01-16 09:53:00,
2013-01-16 03:58:00,31.5,25.1,30.19,North,352,5.0,8.0,77,0.00,,---,0.01,VWS V14.01,2013-01-16 09:58:00,
2013-01-16 04:03:00,31.4,25.0,30.19,NW,307,1.0,6.0,77,0.00,,---,0.01,VWS V14.01,2013-01-16 10:03:00,
2013-01-16 04:08:00,31.3,24.6,30.18,NW,326,4.0,9.0,76,0.00,,---,0.01,VWS V14.01,2013-01-16 10:08:00,
2013-01-16 04:13:00,31.1,24.4,30.19,NW,308,4.0,9.0,76,0.00,,---,0.01,VWS V14.01,2013-01-16 10:13:00,
2013-01-16 04:18:00,31.0,24.3,30.19,NW,317,6.0,9.0,76,0.00,,---,0.01,VWS V14.01,2013-01-16 10:18:00,
2013-01-16 04:23:00,30.9,24.2,30.20,West,276,6.0,9.0,76,0.00,,---,0.01,VWS V14.01,2013-01-16 10:23:00,
2013-01-16 04:28:00,30.7,23.7,30.20,NNW,336,4.0,9.0,75,0.00,,---,0.01,VWS V14.01,2013-01-16 10:28:00,
2013-01-16 04:33:00,30.5,23.5,30.20,WNW,299,6.0,6.0,75,0.00,,---,0.01,VWS V14.01,2013-01-16 10:33:00,
2013-01-16 04:38:00,30.4,23.4,30.20,WNW,300,4.0,6.0,75,0.00,,---,0.01,VWS V14.01,2013-01-16 10:38:00,
2013-01-16 04:43:00,30.2,23.2,30.20,NW,317,5.0,8.0,75,0.00,,---,0.01,VWS V14.01,2013-01-16 10:43:00,
2013-01-16 04:48:00,30.2,22.9,30.20,WNW,301,5.0,8.0,74,0.00,,---,0.01,VWS V14.01,2013-01-16 10:48:00,
2013-01-16 04:53:00,30.1,22.8,30.20,NW,315,3.0,8.0,74,0.00,,---,0.01,VWS V14.01,2013-01-16 10:53:00,
2013-01-16 04:58:00,30.1,22.5,30.20,NW,319,2.0,8.0,73,0.00,,---,0.01,VWS V14.01,2013-01-16 10:58:00,
2013-01-16 05:03:00,30.0,22.1,30.20,NW,325,1.0,3.0,72,0.00,,---,0.01,VWS V14.01,2013-01-16 11:03:00,
2013-01-16 05:08:00,29.9,22.0,30.20,NNW,335,3.0,3.0,72,0.00,,---,0.01,VWS V14.01,2013-01-16 11:08:00,
2013-01-16 05:13:00,29.8,21.9,30.21,NW,314,2.0,4.0,72,0.00,,---,0.01,VWS V14.01,2013-01-16 11:13:00,
2013-01-16 05:18:00,29.8,21.9,30.21,NW,316,4.0,5.0,72,0.00,,---,0.01,VWS V14.01,2013-01-16 11:18:00,
2013-01-16 05:23:00,29.8,21.6,30.21,WNW,302,4.0,7.0,71,0.00,,---,0.01,VWS V14.01,2013-01-16 11:23:00,
2013-01-16 05:28:00,29.8,21.6,30.21,NW,311,4.0,7.0,71,0.00,,---,0.01,VWS V14.01,2013-01-16 11:28:00,
2013-01-16 05:33:00,29.7,21.5,30.21,NW,305,3.0,6.0,71,0.00,,---,0.01,VWS V14.01,2013-01-16 11:33:00,
2013-01-16 05:38:00,29.6,21.7,30.21,NW,321,5.0,7.0,72,0.00,,---,0.01,VWS V14.01,2013-01-16 11:38:00,
2013-01-16 05:43:00,29.6,21.7,30.21,NW,308,4.0,7.0,72,0.00,,---,0.01,VWS V14.01,2013-01-16 11:43:00,
2013-01-16 05:48:00,29.5,21.6,30.21,NW,307,3.0,7.0,72,0.00,,---,0.01,VWS V14.01,2013-01-16 11:48:00,
2013-01-16 05:53:00,29.5,21.9,30.21,NNW,336,4.0,7.0,73,0.00,,---,0.01,VWS V14.01,2013-01-16 11:53:00,
2013-01-16 05:58:00,29.5,21.9,30.21,NW,312,3.0,7.0,73,0.00,,---,0.01,VWS V14.01,2013-01-16 11:58:00,
2013-01-16 06:03:00,29.4,22.1,30.22,NW,311,4.0,5.0,74,0.00,,---,0.01,VWS V14.01,2013-01-16 12:03:00,
2013-01-16 06:08:00,29.4,21.8,30.21,WNW,302,2.0,5.0,73,0.00,,---,0.01,VWS V14.01,2013-01-16 12:08:00,
2013-01-16 06:13:00,29.4,21.5,30.21,NW,316,2.0,5.0,72,0.00,,---,0.01,VWS V14.01,2013-01-16 12:13:00,
2013-01-16 06:18:00,29.4,21.8,30.22,NW,305,3.0,5.0,73,0.00,,---,0.01,VWS V14.01,2013-01-16 12:18:00,
2013-01-16 06:23:00,29.4,21.5,30.23,WNW,302,4.0,5.0,72,0.00,,---,0.01,VWS V14.01,2013-01-16 12:23:00,
2013-01-16 06:28:00,29.4,21.5,30.24,NW,307,1.0,5.0,72,0.00,,---,0.01,VWS V14.01,2013-01-16 12:28:00,
2013-01-16 06:33:00,29.4,21.5,30.24,WNW,302,3.0,4.0,72,0.00,,---,0.01,VWS V14.01,2013-01-16 12:33:00,
2013-01-16 06:38:00,29.4,21.5,30.24,NW,311,2.0,4.0,72,0.00,,---,0.01,VWS V14.01,2013-01-16 12:38:00,
2013-01-16 06:43:00,29.4,21.5,30.24,NW,311,2.0,5.0,72,0.00,,---,0.01,VWS V14.01,2013-01-16 12:43:00,
2013-01-16 06:48:00,29.2,21.3,30.24,NW,315,2.0,5.0,72,0.00,,---,0.01,VWS V14.01,2013-01-16 12:48:00,
2013-01-16 06:53:00,29.2,21.3,30.24,WNW,301,1.0,5.0,72,0.00,,---,0.01,VWS V14.01,2013-01-16 12:53:00,
2013-01-16 06:58:00,29.1,21.2,30.24,NW,308,1.0,5.0,72,0.00,,---,0.01,VWS V14.01,2013-01-16 12:58:00,
2013-01-16 07:03:00,29.0,21.1,30.24,NW,304,2.0,3.0,72,0.00,,---,0.01,VWS V14.01,2013-01-16 13:03:00,
2013-01-16 07:08:00,29.0,21.4,30.24,NW,321,2.0,3.0,73,0.00,,---,0.01,VWS V14.01,2013-01-16 13:08:00,
2013-01-16 07:13:00,28.9,21.0,30.25,WNW,302,3.0,4.0,72,0.00,,---,0.01,VWS V14.01,2013-01-16 13:13:00,
2013-01-16 07:18:00,29.0,21.4,30.25,NW,309,4.0,5.0,73,0.00,,---,0.01,VWS V14.01,2013-01-16 13:18:00,
2013-01-16 07:23:00,28.9,21.4,30.25,WNW,300,3.0,5.0,73,0.00,,---,0.01,VWS V14.01,2013-01-16 13:23:00,
2013-01-16 07:27:00,28.8,21.6,30.25,NW,319,2.0,5.0,74,0.00,,---,0.01,VWS V14.01,2013-01-16 13:27:00,
2013-01-16 07:32:00,28.6,21.1,30.24,NW,320,1.0,2.0,73,0.00,,---,0.01,VWS V14.01,2013-01-16 13:32:00,
2013-01-16 07:37:00,28.5,21.0,30.25,WNW,300,2.0,3.0,73,0.00,,---,0.01,VWS V14.01,2013-01-16 13:37:00,
2013-01-16 07:42:00,28.5,21.0,30.25,NW,307,1.0,3.0,73,0.00,,---,0.01,VWS V14.01,2013-01-16 13:42:00,
2013-01-16 07:47:00,28.5,21.0,30.25,NW,312,2.0,3.0,73,0.00,,---,0.01,VWS V14.01,2013-01-16 13:47:00,
2013-01-16 07:53:00,28.5,21.0,30.25,NW,309,2.0,5.0,73,0.00,,---,0.01,VWS V14.01,2013-01-16 13:53:00,
2013-01-16 07:58:00,28.6,21.1,30.25,WNW,302,3.0,5.0,73,0.00,,---,0.01,VWS V14.01,2013-01-16 13:58:00,
2013-01-16 08:03:00,28.6,21.1,30.25,NW,309,3.0,3.0,73,0.00,,---,0.01,VWS V14.01,2013-01-16 14:03:00,
2013-01-16 08:07:00,28.5,21.0,30.26,NW,304,3.0,4.0,73,0.00,,---,0.01,VWS V14.01,2013-01-16 14:07:00,
2013-01-16 08:12:00,28.6,21.1,30.25,NNW,330,2.0,4.0,73,0.00,,---,0.01,VWS V14.01,2013-01-16 14:12:00,
2013-01-16 08:17:00,28.8,20.9,30.25,NW,314,3.0,4.0,72,0.00,,---,0.01,VWS V14.01,2013-01-16 14:17:00,
2013-01-16 08:22:00,29.1,21.5,30.26,NW,315,5.0,6.0,73,0.00,,---,0.01,VWS V14.01,2013-01-16 14:22:00,
2013-01-16 08:27:00,29.5,21.3,30.26,NW,307,5.0,6.0,71,0.00,,---,0.01,VWS V14.01,2013-01-16 14:27:00,
2013-01-16 08:32:00,29.9,21.3,30.25,NW,317,5.0,7.0,70,0.00,,---,0.01,VWS V14.01,2013-01-16 14:32:00,
2013-01-16 08:37:00,30.2,21.6,30.26,NW,310,4.0,8.0,70,0.00,,---,0.01,VWS V14.01,2013-01-16 14:37:00,
2013-01-16 08:42:00,30.6,21.6,30.26,WNW,297,4.0,8.0,69,0.00,,---,0.01,VWS V14.01,2013-01-16 14:42:00,
2013-01-16 08:47:00,30.9,21.6,30.26,WNW,296,6.0,8.0,68,0.00,,---,0.01,VWS V14.01,2013-01-16 14:47:00,
2013-01-16 08:52:00,31.3,22.0,30.26,NW,305,7.0,9.0,68,0.00,,---,0.01,VWS V14.01,2013-01-16 14:52:00,
2013-01-16 08:57:00,31.6,21.2,30.26,NW,326,6.0,9.0,65,0.00,,---,0.01,VWS V14.01,2013-01-16 14:57:00,
2013-01-16 09:02:00,31.9,21.5,30.26,WNW,290,5.0,7.0,65,0.00,,---,0.01,VWS V14.01,2013-01-16 15:02:00,
2013-01-16 09:07:00,32.3,21.5,30.27,NW,305,6.0,8.0,64,0.00,,---,0.01,VWS V14.01,2013-01-16 15:07:00,
2013-01-16 09:12:00,32.7,21.5,30.27,NW,304,4.0,8.0,63,0.00,,---,0.01,VWS V14.01,2013-01-16 15:12:00,
2013-01-16 09:17:00,32.9,22.1,30.27,WNW,299,6.0,8.0,64,0.00,,---,0.01,VWS V14.01,2013-01-16 15:17:00,
2013-01-16 09:22:00,33.3,22.5,30.27,NW,304,6.0,8.0,64,0.00,,---,0.01,VWS V14.01,2013-01-16 15:22:00,
2013-01-16 09:27:00,33.7,22.1,30.27,NW,314,3.0,8.0,62,0.00,,---,0.01,VWS V14.01,2013-01-16 15:27:00,
2013-01-16 09:32:00,34.0,21.2,30.27,NW,312,7.0,10.0,59,0.00,,---,0.01,VWS V14.01,2013-01-16 15:32:00,
2013-01-16 09:37:00,34.2,21.4,30.27,NW,326,5.0,10.0,59,0.00,,---,0.01,VWS V14.01,2013-01-16 15:37:00,
2013-01-16 09:42:00,34.5,21.3,30.27,WNW,303,4.0,10.0,58,0.00,,---,0.01,VWS V14.01,2013-01-16 15:42:00,
2013-01-16 09:47:00,34.8,22.0,30.27,NW,304,5.0,10.0,59,0.00,,---,0.01,VWS V14.01,2013-01-16 15:47:00,
2013-01-16 09:52:00,35.1,21.0,30.27,NW,318,3.0,10.0,56,0.00,,---,0.01,VWS V14.01,2013-01-16 15:52:00,
2013-01-16 09:57:00,35.5,21.4,30.28,NNW,329,5.0,10.0,56,0.00,,---,0.01,VWS V14.01,2013-01-16 15:57:00,
2013-01-16 10:02:00,35.8,22.5,30.28,NW,305,7.0,7.0,58,0.00,,---,0.01,VWS V14.01,2013-01-16 16:02:00,
2013-01-16 10:07:00,36.3,22.1,30.28,NW,318,1.0,9.0,56,0.00,,---,0.01,VWS V14.01,2013-01-16 16:07:00,
2013-01-16 10:12:00,36.5,21.5,30.28,NW,319,7.0,10.0,54,0.00,,---,0.01,VWS V14.01,2013-01-16 16:12:00,
2013-01-16 10:17:00,36.6,20.2,30.28,NNW,339,5.0,14.0,51,0.00,,---,0.01,VWS V14.01,2013-01-16 16:17:00,
2013-01-16 10:22:00,36.9,19.5,30.27,NNW,336,8.0,14.0,49,0.00,,---,0.01,VWS V14.01,2013-01-16 16:22:00,
2013-01-16 10:27:00,37.0,19.1,30.27,WNW,297,9.0,14.0,48,0.00,,---,0.01,VWS V14.01,2013-01-16 16:27:00,
2013-01-16 10:32:00,37.2,19.3,30.27,NW,316,5.0,11.0,48,0.00,,---,0.01,VWS V14.01,2013-01-16 16:32:00,
2013-01-16 10:37:00,37.4,19.5,30.26,NW,313,2.0,11.0,48,0.00,,---,0.01,VWS V14.01,2013-01-16 16:37:00,
2013-01-16 10:42:00,37.7,20.8,30.26,WNW,300,4.0,11.0,50,0.00,,---,0.01,VWS V14.01,2013-01-16 16:42:00,
2013-01-16 10:47:00,37.9,20.0,30.25,NW,307,8.0,11.0,48,0.00,,---,0.01,VWS V14.01,2013-01-16 16:47:00,
2013-01-16 10:52:00,37.7,19.8,30.26,NW,309,5.0,11.0,48,0.00,,---,0.01,VWS V14.01,2013-01-16 16:52:00,
2013-01-16 10:57:00,37.9,20.0,30.26,WNW,297,5.0,13.0,48,0.00,,---,0.01,VWS V14.01,2013-01-16 16:57:00,
2013-01-16 11:02:00,38.3,19.9,30.26,WNW,292,7.0,11.0,47,0.00,,---,0.01,VWS V14.01,2013-01-16 17:02:00,
2013-01-16 11:07:00,38.3,18.8,30.25,NW,316,5.0,11.0,45,0.00,,---,0.01,VWS V14.01,2013-01-16 17:07:00,
2013-01-16 11:12:00,38.5,20.5,30.25,NW,311,3.0,11.0,48,0.00,,---,0.01,VWS V14.01,2013-01-16 17:12:00,
2013-01-16 11:17:00,38.9,18.9,30.25,NW,307,5.0,11.0,44,0.00,,---,0.01,VWS V14.01,2013-01-16 17:17:00,
2013-01-16 11:22:00,39.1,19.0,30.25,NNW,336,5.0,11.0,44,0.00,,---,0.01,VWS V14.01,2013-01-16 17:22:00,
2013-01-16 11:27:00,39.3,19.2,30.25,NW,318,6.0,11.0,44,0.00,,---,0.01,VWS V14.01,2013-01-16 17:27:00,
2013-01-16 11:32:00,39.6,19.5,30.24,NNW,341,4.0,8.0,44,0.00,,---,0.01,VWS V14.01,2013-01-16 17:32:00,
2013-01-16 11:37:00,40.2,20.6,30.24,NW,310,7.0,8.0,45,0.01,,---,0.02,VWS V14.01,2013-01-16 17:37:00,
2013-01-16 11:42:00,40.3,19.0,30.24,NW,315,5.0,10.0,42,0.01,,---,0.02,VWS V14.01,2013-01-16 17:42:00,
2013-01-16 11:47:00,40.3,19.0,30.23,NNW,333,3.0,10.0,42,0.01,,---,0.02,VWS V14.01,2013-01-16 17:47:00,
2013-01-16 11:52:00,40.7,19.4,30.23,NNW,346,0.0,10.0,42,0.01,,---,0.02,VWS V14.01,2013-01-16 17:52:00,
2013-01-16 11:57:00,41.1,19.8,30.23,NNW,346,0.0,10.0,42,0.01,,---,0.02,VWS V14.01,2013-01-16 17:57:00,
2013-01-16 12:02:00,41.5,19.6,30.22,NW,322,4.0,6.0,41,0.01,,---,0.02,VWS V14.01,2013-01-16 18:02:00,
2013-01-16 12:07:00,41.4,18.9,30.22,NW,314,2.0,7.0,40,0.01,,---,0.02,VWS V14.01,2013-01-16 18:07:00,
2013-01-16 12:12:00,41.8,19.8,30.21,NW,304,3.0,9.0,41,0.01,,---,0.02,VWS V14.01,2013-01-16 18:12:00,
2013-01-16 12:17:00,41.6,19.1,30.21,NNW,345,5.0,9.0,40,0.02,,---,0.03,VWS V14.01,2013-01-16 18:17:00,
2013-01-16 12:22:00,42.0,19.5,30.21,WNW,303,2.0,9.0,40,0.02,,---,0.03,VWS V14.01,2013-01-16 18:22:00,
2013-01-16 12:27:00,42.0,19.5,30.20,NNW,334,2.0,9.0,40,0.02,,---,0.03,VWS V14.01,2013-01-16 18:27:00,
2013-01-16 12:32:00,42.5,19.3,30.20,NNE,18,2.0,8.0,39,0.02,,---,0.03,VWS V14.01,2013-01-16 18:32:00,
2013-01-16 12:37:00,42.7,20.7,30.20,NNW,347,2.0,9.0,41,0.02,,---,0.03,VWS V14.01,2013-01-16 18:37:00,
2013-01-16 12:42:00,42.5,18.7,30.20,NW,318,5.0,10.0,38,0.02,,---,0.03,VWS V14.01,2013-01-16 18:42:00,
2013-01-16 12:47:00,42.6,20.6,30.20,NW,304,4.0,10.0,41,0.02,,---,0.03,VWS V14.01,2013-01-16 18:47:00,
2013-01-16 12:52:00,42.6,21.7,30.19,NW,317,2.0,10.0,43,0.02,,---,0.03,VWS V14.01,2013-01-16 18:52:00,
2013-01-16 12:57:00,43.2,21.1,30.19,NW,314,4.0,10.0,41,0.02,,---,0.03,VWS V14.01,2013-01-16 18:57:00,
2013-01-16 13:02:00,42.9,19.1,30.19,NW,314,3.0,7.0,38,0.01,,---,0.03,VWS V14.01,2013-01-16 19:02:00,
2013-01-16 13:07:00,43.0,20.9,30.18,West,280,1.0,7.0,41,0.01,,---,0.03,VWS V14.01,2013-01-16 19:07:00,
2013-01-16 13:12:00,43.2,19.9,30.18,North,9,3.0,11.0,39,0.01,,---,0.03,VWS V14.01,2013-01-16 19:12:00,
2013-01-16 13:17:00,43.3,20.6,30.18,NW,308,1.0,11.0,40,0.01,,---,0.03,VWS V14.01,2013-01-16 19:17:00,
2013-01-16 13:22:00,43.5,20.8,30.18,NNE,24,5.0,11.0,40,0.01,,---,0.03,VWS V14.01,2013-01-16 19:22:00,
2013-01-16 13:27:00,43.8,20.5,30.18,NW,315,6.0,11.0,39,0.01,,---,0.03,VWS V14.01,2013-01-16 19:27:00,
2013-01-16 13:32:00,43.7,21.0,30.18,NW,305,4.0,8.0,40,0.01,,---,0.04,VWS V14.01,2013-01-16 19:32:00,
2013-01-16 13:37:00,43.7,22.1,30.17,WNW,303,6.0,8.0,42,0.01,,---,0.04,VWS V14.01,2013-01-16 19:37:00,
2013-01-16 13:42:00,43.6,21.5,30.17,WNW,303,2.0,10.0,41,0.01,,---,0.04,VWS V14.01,2013-01-16 19:42:00,
2013-01-16 13:47:00,43.9,21.7,30.17,WNW,297,3.0,10.0,41,0.01,,---,0.04,VWS V14.01,2013-01-16 19:47:00,
2013-01-16 13:52:00,43.8,21.6,30.17,NW,311,6.0,11.0,41,0.01,,---,0.04,VWS V14.01,2013-01-16 19:52:00,
2013-01-16 13:57:00,43.9,22.3,30.17,NW,311,6.0,11.0,42,0.01,,---,0.04,VWS V14.01,2013-01-16 19:57:00,
2013-01-16 14:02:00,44.5,23.4,30.16,NW,311,3.0,4.0,43,0.01,,---,0.04,VWS V14.01,2013-01-16 20:02:00,
2013-01-16 14:07:00,44.9,23.2,30.16,NW,307,2.0,7.0,42,0.01,,---,0.04,VWS V14.01,2013-01-16 20:07:00,
2013-01-16 14:12:00,44.8,23.7,30.16,ENE,60,2.0,7.0,43,0.01,,---,0.04,VWS V14.01,2013-01-16 20:12:00,
2013-01-16 14:17:00,45.2,22.9,30.16,NW,307,4.0,7.0,41,0.01,,---,0.04,VWS V14.01,2013-01-16 20:17:00,
2013-01-16 14:22:00,44.6,22.9,30.16,NW,315,5.0,9.0,42,0.01,,---,0.04,VWS V14.01,2013-01-16 20:22:00,
2013-01-16 14:27:00,44.6,23.5,30.16,NW,308,6.0,9.0,43,0.01,,---,0.04,VWS V14.01,2013-01-16 20:27:00,
2013-01-16 14:32:00,44.8,23.1,30.16,NNE,14,1.0,4.0,42,0.01,,---,0.04,VWS V14.01,2013-01-16 20:32:00,
2013-01-16 14:37:00,44.9,22.6,30.16,NW,326,7.0,9.0,41,0.01,,---,0.04,VWS V14.01,2013-01-16 20:37:00,
2013-01-16 14:42:00,44.8,22.0,30.16,NW,309,3.0,9.0,40,0.01,,---,0.04,VWS V14.01,2013-01-16 20:42:00,
2013-01-16 14:47:00,45.2,22.9,30.16,NW,315,3.0,9.0,41,0.01,,---,0.04,VWS V14.01,2013-01-16 20:47:00,
2013-01-16 14:52:00,45.2,22.9,30.16,WNW,303,7.0,10.0,41,0.01,,---,0.04,VWS V14.01,2013-01-16 20:52:00,
2013-01-16 14:57:00,45.1,23.4,30.16,WNW,295,1.0,10.0,42,0.01,,---,0.04,VWS V14.01,2013-01-16 20:57:00,
2013-01-16 15:02:00,45.2,24.0,30.16,West,264,2.0,9.0,43,0.00,,---,0.04,VWS V14.01,2013-01-16 21:02:00,
2013-01-16 15:07:00,45.2,24.0,30.16,NW,304,5.0,9.0,43,0.00,,---,0.04,VWS V14.01,2013-01-16 21:07:00,
2013-01-16 15:12:00,45.5,24.3,30.16,NE,39,1.0,11.0,43,0.00,,---,0.04,VWS V14.01,2013-01-16 21:12:00,
2013-01-16 15:17:00,45.2,23.5,30.16,NNE,31,3.0,14.0,42,0.00,,---,0.04,VWS V14.01,2013-01-16 21:17:00,
2013-01-16 15:22:00,45.3,24.1,30.16,ESE,120,3.0,14.0,43,0.00,,---,0.04,VWS V14.01,2013-01-16 21:22:00,
2013-01-16 15:27:00,45.6,24.4,30.16,NW,314,2.0,14.0,43,0.00,,---,0.04,VWS V14.01,2013-01-16 21:27:00,
2013-01-16 15:32:00,46.0,24.8,30.16,NNW,342,5.0,8.0,43,0.00,,---,0.04,VWS V14.01,2013-01-16 21:32:00,
2013-01-16 15:37:00,45.9,25.2,30.16,NNW,347,2.0,8.0,44,0.00,,---,0.04,VWS V14.01,2013-01-16 21:37:00,
2013-01-16 15:42:00,45.9,24.7,30.16,WNW,302,4.0,10.0,43,0.00,,---,0.04,VWS V14.01,2013-01-16 21:42:00,
2013-01-16 15:47:00,46.0,24.8,30.16,WNW,297,10.0,10.0,43,0.00,,---,0.04,VWS V14.01,2013-01-16 21:47:00,
2013-01-16 15:52:00,45.8,25.7,30.16,North,350,1.0,11.0,45,0.00,,---,0.04,VWS V14.01,2013-01-16 21:52:00,
2013-01-16 15:57:00,45.8,25.7,30.16,NW,311,8.0,11.0,45,0.00,,---,0.04,VWS V14.01,2013-01-16 21:57:00,
2013-01-16 16:02:00,45.7,25.0,30.16,NW,308,4.0,7.0,44,0.00,,---,0.04,VWS V14.01,2013-01-16 22:02:00,
2013-01-16 16:07:00,45.9,24.7,30.16,NW,304,7.0,8.0,43,0.00,,---,0.04,VWS V14.01,2013-01-16 22:07:00,
2013-01-16 16:12:00,45.7,24.5,30.16,NW,307,3.0,9.0,43,0.00,,---,0.04,VWS V14.01,2013-01-16 22:12:00,
2013-01-16 16:17:00,46.1,24.9,30.16,WNW,300,4.0,9.0,43,0.00,,---,0.04,VWS V14.01,2013-01-16 22:17:00,
2013-01-16 16:22:00,46.0,24.8,30.16,NNW,333,8.0,10.0,43,0.00,,---,0.04,VWS V14.01,2013-01-16 22:22:00,
2013-01-16 16:27:00,45.9,24.1,30.17,NW,309,5.0,10.0,42,0.00,,---,0.04,VWS V14.01,2013-01-16 22:27:00,
2013-01-16 16:32:00,45.9,24.7,30.17,NW,309,6.0,9.0,43,0.00,,---,0.04,VWS V14.01,2013-01-16 22:32:00,
2013-01-16 16:37:00,45.8,24.0,30.17,WNW,300,5.0,10.0,42,0.00,,---,0.04,VWS V14.01,2013-01-16 22:37:00,
2013-01-16 16:42:00,45.7,24.5,30.17,WNW,303,6.0,10.0,43,0.00,,---,0.04,VWS V14.01,2013-01-16 22:42:00,
2013-01-16 16:47:00,45.6,25.0,30.17,WNW,291,7.0,10.0,44,0.00,,---,0.04,VWS V14.01,2013-01-16 22:47:00,
2013-01-16 16:52:00,45.4,24.8,30.17,WNW,303,9.0,11.0,44,0.00,,---,0.04,VWS V14.01,2013-01-16 22:52:00,
2013-01-16 16:57:00,45.3,25.2,30.17,WNW,300,6.0,11.0,45,0.00,,---,0.04,VWS V14.01,2013-01-16 22:57:00,
2013-01-16 17:02:00,45.2,24.6,30.17,WNW,298,7.0,8.0,44,0.00,,---,0.04,VWS V14.01,2013-01-16 23:02:00,
2013-01-16 17:07:00,45.2,25.1,30.17,NW,305,7.0,9.0,45,0.00,,---,0.04,VWS V14.01,2013-01-16 23:07:00,
2013-01-16 17:12:00,45.1,25.6,30.18,WNW,300,4.0,9.0,46,0.00,,---,0.04,VWS V14.01,2013-01-16 23:12:00,
2013-01-16 17:17:00,44.9,26.4,30.18,NNE,27,1.0,9.0,48,0.00,,---,0.04,VWS V14.01,2013-01-16 23:17:00,
2013-01-16 17:22:00,44.8,25.8,30.18,WNW,293,5.0,9.0,47,0.00,,---,0.04,VWS V14.01,2013-01-16 23:22:00,
2013-01-16 17:27:00,44.5,25.5,30.18,NW,306,5.0,9.0,47,0.00,,---,0.04,VWS V14.01,2013-01-16 23:27:00,
2013-01-16 17:32:00,44.3,25.9,30.19,NNE,15,0.0,2.0,48,0.00,,---,0.04,VWS V14.01,2013-01-16 23:32:00,
2013-01-16 17:37:00,43.9,25.5,30.19,North,8,0.0,3.0,48,0.00,,---,0.04,VWS V14.01,2013-01-16 23:37:00,
2013-01-16 17:42:00,43.5,25.6,30.19,NW,304,3.0,4.0,49,0.00,,---,0.04,VWS V14.01,2013-01-16 23:42:00,
2013-01-16 17:47:00,43.1,25.7,30.19,NW,307,4.0,4.0,50,0.00,,---,0.04,VWS V14.01,2013-01-16 23:47:00,
2013-01-16 17:52:00,42.8,25.0,30.19,NW,304,2.0,4.0,49,0.00,,---,0.04,VWS V14.01,2013-01-16 23:52:00,
2013-01-16 17:57:00,42.5,24.7,30.19,WNW,297,2.0,4.0,49,0.00,,---,0.04,VWS V14.01,2013-01-16 23:57:00,
2013-01-16 18:02:00,42.2,27.2,30.20,NW,305,2.0,3.0,55,0.00,,---,0.04,VWS V14.01,2013-01-17 00:02:00,
2013-01-16 18:07:00,41.8,25.9,30.20,WNW,297,0.0,3.0,53,0.00,,---,0.04,VWS V14.01,2013-01-17 00:07:00,
2013-01-16 18:12:00,41.5,26.1,30.20,North,354,0.0,3.0,54,0.00,,---,0.04,VWS V14.01,2013-01-17 00:12:00,
2013-01-16 18:17:00,41.1,26.6,30.20,NNW,347,0.0,3.0,56,0.00,,---,0.04,VWS V14.01,2013-01-17 00:17:00,
2013-01-16 18:22:00,40.9,26.4,30.20,North,11,0.0,3.0,56,0.00,,---,0.04,VWS V14.01,2013-01-17 00:22:00,
2013-01-16 18:27:00,40.6,27.8,30.21,NW,312,0.0,3.0,60,0.00,,---,0.04,VWS V14.01,2013-01-17 00:27:00,
2013-01-16 18:32:00,40.4,26.0,30.21,NW,312,0.0,0.0,56,0.00,,---,0.04,VWS V14.01,2013-01-17 00:32:00,
2013-01-16 18:37:00,40.2,25.3,30.21,NW,312,0.0,0.0,55,0.00,,---,0.04,VWS V14.01,2013-01-17 00:37:00,
2013-01-16 18:42:00,40.1,25.2,30.21,NW,312,0.0,0.0,55,0.00,,---,0.04,VWS V14.01,2013-01-17 00:42:00,
2013-01-16 18:47:00,39.9,25.5,30.21,NW,312,0.0,0.0,56,0.00,,---,0.04,VWS V14.01,2013-01-17 00:47:00,
2013-01-16 18:52:00,39.6,25.6,30.21,NW,311,0.0,0.0,57,0.00,,---,0.04,VWS V14.01,2013-01-17 00:52:00,
2013-01-16 18:57:00,39.2,25.7,30.21,NW,311,0.0,0.0,58,0.00,,---,0.04,VWS V14.01,2013-01-17 00:57:00,
2013-01-16 19:02:00,38.8,26.5,30.21,NW,312,0.0,0.0,61,0.00,,---,0.04,VWS V14.01,2013-01-17 01:02:00,
2013-01-16 19:07:00,38.4,30.2,30.21,NW,312,0.0,0.0,72,0.00,,---,0.04,VWS V14.01,2013-01-17 01:07:00,
2013-01-16 19:12:00,37.8,29.9,30.21,NW,311,0.0,0.0,73,0.00,,---,0.04,VWS V14.01,2013-01-17 01:12:00,
2013-01-16 19:17:00,37.4,30.2,30.21,NW,311,0.0,0.0,75,0.00,,---,0.04,VWS V14.01,2013-01-17 01:17:00,
2013-01-16 19:22:00,36.8,30.6,30.21,NW,311,0.0,0.0,78,0.00,,---,0.04,VWS V14.01,2013-01-17 01:22:00,
2013-01-16 19:27:00,36.3,29.5,30.21,NW,312,0.0,0.0,76,0.00,,---,0.04,VWS V14.01,2013-01-17 01:27:00,
2013-01-16 19:32:00,36.2,28.1,30.22,NW,311,0.0,0.0,72,0.00,,---,0.04,VWS V14.01,2013-01-17 01:32:00,
2013-01-16 19:37:00,36.4,27.6,30.22,NW,311,0.0,0.0,70,0.00,,---,0.04,VWS V14.01,2013-01-17 01:37:00,
2013-01-16 19:42:00,36.6,28.1,30.22,NW,311,0.0,0.0,71,0.00,,---,0.04,VWS V14.01,2013-01-17 01:42:00,
2013-01-16 19:47:00,36.5,27.3,30.22,NW,312,0.0,0.0,69,0.00,,---,0.04,VWS V14.01,2013-01-17 01:47:00,
2013-01-16 19:52:00,36.6,27.0,30.22,NW,312,0.0,0.0,68,0.00,,---,0.04,VWS V14.01,2013-01-17 01:52:00,
2013-01-16 19:57:00,36.4,27.9,30.22,NW,312,0.0,0.0,71,0.00,,---,0.04,VWS V14.01,2013-01-17 01:57:00,
2013-01-16 20:02:00,36.4,26.9,30.22,NW,311,0.0,0.0,68,0.00,,---,0.04,VWS V14.01,2013-01-17 02:02:00,
2013-01-16 20:07:00,36.8,26.5,30.22,NW,312,0.0,0.0,66,0.00,,---,0.04,VWS V14.01,2013-01-17 02:07:00,
2013-01-16 20:12:00,36.5,27.7,30.22,NW,312,0.0,0.0,70,0.00,,---,0.04,VWS V14.01,2013-01-17 02:12:00,
2013-01-16 20:17:00,36.1,26.6,30.22,WNW,284,0.0,0.0,68,0.00,,---,0.04,VWS V14.01,2013-01-17 02:17:00,
2013-01-16 20:22:00,36.4,26.5,30.22,WNW,287,0.0,0.0,67,0.00,,---,0.04,VWS V14.01,2013-01-17 02:22:00,
2013-01-16 20:27:00,36.3,26.0,30.22,WNW,287,0.0,0.0,66,0.00,,---,0.04,VWS V14.01,2013-01-17 02:27:00,
2013-01-16 20:32:00,36.4,26.1,30.22,WNW,287,0.0,0.0,66,0.00,,---,0.04,VWS V14.01,2013-01-17 02:32:00,
2013-01-16 20:37:00,36.3,26.4,30.22,WNW,287,0.0,0.0,67,0.00,,---,0.04,VWS V14.01,2013-01-17 02:37:00,
2013-01-16 20:42:00,35.5,28.0,30.22,WNW,286,0.0,0.0,74,0.00,,---,0.04,VWS V14.01,2013-01-17 02:42:00,
2013-01-16 20:47:00,35.1,27.0,30.22,WNW,287,0.0,0.0,72,0.00,,---,0.04,VWS V14.01,2013-01-17 02:47:00,
2013-01-16 20:52:00,34.7,27.3,30.22,WNW,286,0.0,0.0,74,0.00,,---,0.04,VWS V14.01,2013-01-17 02:52:00,
2013-01-16 20:57:00,34.3,27.5,30.22,WNW,286,0.0,0.0,76,0.00,,---,0.04,VWS V14.01,2013-01-17 02:57:00,
2013-01-16 21:02:00,34.2,27.1,30.22,WNW,287,0.0,0.0,75,0.00,,---,0.04,VWS V14.01,2013-01-17 03:02:00,
2013-01-16 21:07:00,34.2,27.8,30.22,WNW,286,0.0,0.0,77,0.00,,---,0.04,VWS V14.01,2013-01-17 03:07:00,
2013-01-16 21:12:00,34.1,28.0,30.22,WNW,287,1.0,2.0,78,0.00,,---,0.04,VWS V14.01,2013-01-17 03:12:00,
2013-01-16 21:17:00,33.9,27.5,30.22,WNW,287,1.0,2.0,77,0.00,,---,0.04,VWS V14.01,2013-01-17 03:17:00,
2013-01-16 21:22:00,34.0,27.2,30.22,WNW,290,1.0,2.0,76,0.00,,---,0.04,VWS V14.01,2013-01-17 03:22:00,
2013-01-16 21:27:00,34.1,27.7,30.22,NW,304,0.0,2.0,77,0.00,,---,0.04,VWS V14.01,2013-01-17 03:27:00,
2013-01-16 21:32:00,33.9,28.1,30.22,NW,306,0.0,0.0,79,0.00,,---,0.04,VWS V14.01,2013-01-17 03:32:00,
2013-01-16 21:37:00,34.1,28.0,30.22,WNW,286,0.0,0.0,78,0.00,,---,0.04,VWS V14.01,2013-01-17 03:37:00,
2013-01-16 21:42:00,33.9,28.1,30.23,WNW,286,0.0,0.0,79,0.00,,---,0.04,VWS V14.01,2013-01-17 03:42:00,
2013-01-16 21:47:00,33.6,28.7,30.22,WNW,289,1.0,2.0,82,0.00,,---,0.04,VWS V14.01,2013-01-17 03:47:00,
2013-01-16 21:52:00,33.4,28.2,30.22,NW,307,0.0,2.0,81,0.00,,---,0.04,VWS V14.01,2013-01-17 03:52:00,
2013-01-16 21:57:00,33.3,28.1,30.22,NW,307,1.0,2.0,81,0.00,,---,0.04,VWS V14.01,2013-01-17 03:57:00,
2013-01-16 22:02:00,33.6,27.8,30.22,NW,307,0.0,1.0,79,0.00,,---,0.04,VWS V14.01,2013-01-17 04:02:00,
2013-01-16 22:07:00,34.1,27.3,30.22,NW,307,0.0,1.0,76,0.00,,---,0.04,VWS V14.01,2013-01-17 04:07:00,
2013-01-16 22:12:00,34.3,27.5,30.22,NW,307,0.0,1.0,76,0.00,,---,0.04,VWS V14.01,2013-01-17 04:12:00,
2013-01-16 22:17:00,34.5,27.7,30.22,NW,307,0.0,1.0,76,0.00,,---,0.04,VWS V14.01,2013-01-17 04:17:00,
2013-01-16 22:22:00,34.3,27.2,30.23,NW,306,0.0,1.0,75,0.00,,---,0.04,VWS V14.01,2013-01-17 04:22:00,
2013-01-16 22:27:00,33.7,27.6,30.23,NW,307,0.0,1.0,78,0.00,,---,0.04,VWS V14.01,2013-01-17 04:27:00,
2013-01-16 22:32:00,33.2,27.4,30.23,NW,307,0.0,0.0,79,0.00,,---,0.04,VWS V14.01,2013-01-17 04:32:00,
2013-01-16 22:37:00,33.1,27.6,30.23,NW,307,0.0,0.0,80,0.00,,---,0.04,VWS V14.01,2013-01-17 04:37:00,
2013-01-16 22:42:00,33.3,27.2,30.23,NW,305,0.0,0.0,78,0.00,,---,0.04,VWS V14.01,2013-01-17 04:42:00,
2013-01-16 22:47:00,33.4,27.3,30.23,NW,305,0.0,0.0,78,0.00,,---,0.04,VWS V14.01,2013-01-17 04:47:00,
2013-01-16 22:52:00,33.4,27.6,30.23,NW,304,0.0,0.0,79,0.00,,---,0.04,VWS V14.01,2013-01-17 04:52:00,
2013-01-16 22:57:00,33.0,26.9,30.23,NW,305,0.0,0.0,78,0.00,,---,0.04,VWS V14.01,2013-01-17 04:57:00,
2013-01-16 23:00:00,32.7,26.6,30.23,NW,307,0.0,0.0,78,0.00,,---,0.04,VWS V14.01,2013-01-17 05:00:00,
2013-01-16 23:01:00,32.7,26.6,30.23,NW,305,0.0,0.0,78,0.00,,---,0.04,VWS V14.01,2013-01-17 05:01:00,
2013-01-16 23:02:00,32.6,26.5,30.23,NW,307,0.0,0.0,78,0.00,,---,0.04,VWS V14.01,2013-01-17 05:02:00,
2013-01-16 23:07:00,32.6,26.8,30.23,NW,305,0.0,0.0,79,0.00,,---,0.04,VWS V14.01,2013-01-17 05:07:00,
2013-01-16 23:12:00,32.3,26.5,30.23,NW,307,0.0,0.0,79,0.00,,---,0.04,VWS V14.01,2013-01-17 05:12:00,
2013-01-16 23:17:00,32.0,26.5,30.23,NW,305,0.0,0.0,80,0.00,,---,0.04,VWS V14.01,2013-01-17 05:17:00,
2013-01-16 23:22:00,32.1,26.3,30.23,NW,305,0.0,0.0,79,0.00,,---,0.04,VWS V14.01,2013-01-17 05:22:00,
2013-01-16 23:27:00,32.3,26.2,30.23,NW,307,0.0,0.0,78,0.00,,---,0.04,VWS V14.01,2013-01-17 05:27:00,
2013-01-16 23:32:00,32.3,26.2,30.23,NW,305,0.0,0.0,78,0.00,,---,0.04,VWS V14.01,2013-01-17 05:32:00,
2013-01-16 23:37:00,32.5,26.1,30.23,NW,306,0.0,0.0,77,0.00,,---,0.04,VWS V14.01,2013-01-17 05:37:00,
2013-01-16 23:42:00,32.5,26.1,30.24,NW,306,0.0,0.0,77,0.00,,---,0.04,VWS V14.01,2013-01-17 05:42:00,
2013-01-16 23:47:00,32.4,26.0,30.24,NW,305,0.0,0.0,77,0.00,,---,0.04,VWS V14.01,2013-01-17 05:47:00,
2013-01-16 23:52:00,32.3,26.2,30.23,NW,307,0.0,0.0,78,0.00,,---,0.04,VWS V14.01,2013-01-17 05:52:00,
2013-01-16 23:57:00,32.3,27.7,30.24,NW,307,0.0,0.0,83,0.00,,---,0.04,VWS V14.01,2013-01-17 05:57:00,